星链-1244 (STARLINK-1244 )

导读

STARLINK-1244是美国SpaceX星链计划中的一颗低轨卫星,于2020年2月17日发射升空,属于星链组网首批批量卫星之一。星链通过大规模低轨卫星星座为全球提供高速互联网覆盖,该卫星承担着星座部分通信链路节点功能,服务全球不同地区的用户互联网接入需求。

Basic Information
目录编号:
45196
目录名称:
STARLINK-1244
国际标识:
2020-012U
轨道中心:
EARTH
卫星名称:
星链-1244
卫星全名:
星链-1244 (STARLINK-1244 )
卫星状态:
已陨落 最后检测时间 2025-09-27
发射日期:
2020-02-17 UTC
国别 :
美国 (US)
星等 :
--
Orbit Information
数据来源 国际轨道数据
星历时间: 2025-09-27T21:05:28+0800
轨道信息已过期258天
半长轴: 6545.817km
偏心率: 0.0002699
轨道倾角: 53.026°
近地点辐角 278.558°
升交点赤经 356.619°
平近点角 81.516°
近地点: 165.915km
远地点: 169.449km
周期: 87.843分钟
每日圈数: 16.392948
Detailed Information
固有亮度:
5
最大亮度:
2.5
卫星平台:
Starlink V1.0
覆盖范围:
全球
运营商:
太空探索技术公司
运营商所在国:
美国
制造商(研发单位):
太空探索技术公司
制造商所在国:
美国
使用方式:
暂无
Satellite Introduction
星链(Starlink)计划是由太空探索技术公司(SpaceX)提出的一个巨型低轨卫星互联网星座项目,计划在2019年至2024年间在太空搭建由约1.2万颗卫星组成的“星链”网络,其中1584颗将部署在地球上空550千米处的近地轨道,并从2020年开始工作。该卫星仍在工作。